LGS1062 LFLL-EBBR

Flight info

Callsign LGS1062
Flight time N/A
Altitude 30000
Route BUSIL DCT AMORO DCT MOMIL DCT BAGBI DCT SIZZA DCT LAULY DCT BRY DCT CLM DCT KOPOR DCT SOMIL DCT BELDI DCT VEKIN Z173 ARVOL
Aircraft A320/M-SDE3FGHIRWY/LB1

Departure

Time N/A
Airport Lyon Saint-Exupéry Airport (LFLL)

Arrival

Time 2026-05-05 09:41
Airport Brussels Airport (EBBR)
Time Latitude Longitude Altitude Speed Heading
2026-05-05 09:25 50.53120 3.64582 8068 ft 275 kts 97°
2026-05-05 09:25 50.52805 3.67533 7762 ft 273 kts 97°
2026-05-05 09:26 50.52494 3.70467 7459 ft 271 kts 98°
2026-05-05 09:26 50.52186 3.73386 7170 ft 270 kts 97°
2026-05-05 09:26 50.51874 3.76276 6876 ft 268 kts 97°
2026-05-05 09:26 50.51555 3.79147 6583 ft 266 kts 98°
2026-05-05 09:27 50.51237 3.82010 6271 ft 265 kts 98°
2026-05-05 09:27 50.50925 3.84850 6052 ft 264 kts 97°
2026-05-05 09:27 50.50610 3.87685 5844 ft 263 kts 97°
2026-05-05 09:27 50.50408 3.90523 5641 ft 259 kts 85°
2026-05-05 09:28 50.50848 3.93220 5439 ft 255 kts 62°
2026-05-05 09:28 50.51800 3.95584 5236 ft 256 kts 56°
2026-05-05 09:28 50.52786 3.97901 5034 ft 254 kts 56°
2026-05-05 09:28 50.53770 4.00212 4836 ft 254 kts 56°
2026-05-05 09:29 50.54755 4.02528 4630 ft 253 kts 57°
2026-05-05 09:29 50.55712 4.04784 4418 ft 243 kts 57°
2026-05-05 09:29 50.56632 4.06955 4219 ft 235 kts 56°
2026-05-05 09:29 50.57520 4.09044 4057 ft 225 kts 56°
2026-05-05 09:30 50.58368 4.11045 3900 ft 215 kts 56°
2026-05-05 09:30 50.59186 4.12980 3751 ft 209 kts 56°
2026-05-05 09:30 50.59981 4.14860 3595 ft 203 kts 56°
2026-05-05 09:30 50.60750 4.16683 3445 ft 197 kts 56°
2026-05-05 09:31 50.61494 4.18443 3285 ft 190 kts 56°
2026-05-05 09:31 50.62217 4.20155 3174 ft 183 kts 56°
2026-05-05 09:31 50.62893 4.21755 3086 ft 169 kts 56°
2026-05-05 09:31 50.63520 4.23237 3000 ft 156 kts 56°
2026-05-05 09:32 50.64087 4.24584 3001 ft 143 kts 56°
2026-05-05 09:32 50.64627 4.25866 3016 ft 138 kts 56°
2026-05-05 09:32 50.65155 4.27119 2991 ft 137 kts 54°
2026-05-05 09:32 50.65680 4.28364 2912 ft 136 kts 55°
2026-05-05 09:33 50.66202 4.29601 2841 ft 136 kts 56°
2026-05-05 09:33 50.66723 4.30845 2759 ft 137 kts 55°
2026-05-05 09:33 50.67242 4.32092 2684 ft 136 kts 55°
2026-05-05 09:33 50.67761 4.33332 2598 ft 135 kts 55°
2026-05-05 09:34 50.68280 4.34567 2531 ft 135 kts 55°
2026-05-05 09:34 50.68798 4.35803 2459 ft 135 kts 55°
2026-05-05 09:34 50.69312 4.37028 2377 ft 135 kts 56°
2026-05-05 09:34 50.69827 4.38259 2302 ft 134 kts 55°
2026-05-05 09:35 50.70342 4.39485 2221 ft 134 kts 55°
2026-05-05 09:35 50.71515 4.41741 2092 ft 133 kts 37°
2026-05-05 09:35 50.72333 4.42431 2033 ft 134 kts 22°
2026-05-05 09:36 50.73231 4.42816 2007 ft 133 kts 17°
2026-05-05 09:36 50.74129 4.43185 2005 ft 134 kts 17°
2026-05-05 09:36 50.75026 4.43567 2007 ft 134 kts 16°
2026-05-05 09:36 50.75929 4.43944 2006 ft 134 kts 17°
2026-05-05 09:37 50.76828 4.44313 2005 ft 133 kts 18°
2026-05-05 09:37 50.77727 4.44680 2002 ft 134 kts 16°
2026-05-05 09:37 50.78625 4.45046 2010 ft 133 kts 17°
2026-05-05 09:37 50.79524 4.45411 1977 ft 134 kts 15°
2026-05-05 09:38 50.80428 4.45778 1867 ft 135 kts 17°
2026-05-05 09:38 50.81334 4.46147 1721 ft 133 kts 17°
2026-05-05 09:38 50.82220 4.46507 1553 ft 133 kts 17°
2026-05-05 09:38 50.83114 4.46870 1374 ft 132 kts 18°
2026-05-05 09:39 50.84003 4.47232 1192 ft 131 kts 18°
2026-05-05 09:39 50.84892 4.47593 1011 ft 132 kts 15°
2026-05-05 09:39 50.85784 4.47956 832 ft 135 kts 16°
2026-05-05 09:39 50.86691 4.48326 650 ft 133 kts 15°
2026-05-05 09:40 50.87587 4.48690 467 ft 133 kts 15°
2026-05-05 09:40 50.88477 4.49055 290 ft 131 kts 15°
2026-05-05 09:40 50.89333 4.49410 147 ft 118 kts 15°
2026-05-05 09:40 50.90009 4.49683 134 ft 80 kts 14°
2026-05-05 09:41 50.90467 4.49871 137 ft 51 kts 14°
2026-05-05 09:41 50.90681 4.49933 135 ft 31 kts
2026-05-05 09:41 50.90863 4.49866 126 ft 19 kts 307°
2026-05-05 09:41 50.90883 4.49638 125 ft 24 kts 253°
2026-05-05 09:42 50.90813 4.49387 129 ft 29 kts 246°
2026-05-05 09:42 50.90718 4.49066 126 ft 36 kts 245°
2026-05-05 09:42 50.90608 4.48673 127 ft 41 kts 245°
2026-05-05 09:42 50.90491 4.48271 141 ft 35 kts 246°
2026-05-05 09:43 50.90429 4.48071 140 ft 16 kts 226°
2026-05-05 09:43 50.90336 4.47984 140 ft 18 kts 244°
2026-05-05 09:43 50.90277 4.47800 138 ft 15 kts 243°
2026-05-05 09:43 50.90258 4.47730 138 ft 5 kts 244°
2026-05-05 09:44 50.90214 4.47731 139 ft 7 kts 158°
2026-05-05 09:44 50.90179 4.47754 140 ft 4 kts 155°
2026-05-05 09:44 50.90173 4.47759 140 ft 0 kts 155°